• In Sweden
  • List of Countries
  • For 7 days
  • Water Temperature
  • Satellite Maps
  • Weather Map
  • Weather Widgets
  • user-avatar
    Login

    Hourly Weather Novoilinka

    Today, 26 September, Wednesday

    Time Temperature Precipitation Wind Pressure Humidity
    00:00 +13°C° 0.1 mm 1 mps 757 mmHg 97%
    01:00 +13°C° 0 mm 1 mps 757 mmHg 97%
    02:00 +13°C° 0 mm 1 mps 758 mmHg 97%
    03:00 +12°C° 0 mm 1 mps 758 mmHg 97%
    04:00 +12°C° 0 mm 1 mps 758 mmHg 97%
    05:00 +12°C° 0 mm 1 mps 758 mmHg 97%
    06:00 +12°C° 0 mm 1 mps 758 mmHg 97%
    07:00 +13°C° 0 mm 2 mps 758 mmHg 96%
    08:00 +14°C° 0 mm 2 mps 759 mmHg 94%
    09:00 +15°C° 0 mm 2 mps 759 mmHg 93%
    10:00 +15°C° 0 mm 2 mps 759 mmHg 92%
    11:00 +16°C° 0 mm 2 mps 759 mmHg 90%
    12:00 +16°C° 0 mm 2 mps 759 mmHg 89%
    13:00 +17°C° 0 mm 2 mps 759 mmHg 88%
    14:00 +17°C° 0 mm 2 mps 759 mmHg 87%
    15:00 +18°C° 0 mm 2 mps 759 mmHg 86%
    16:00 +17°C° 0 mm 2 mps 759 mmHg 89%
    17:00 +16°C° 0 mm 2 mps 759 mmHg 92%
    18:00 +16°C° 0 mm 1 mps 759 mmHg 94%
    19:00 +15°C° 0 mm 1 mps 759 mmHg 95%
    20:00 +15°C° 0 mm 2 mps 760 mmHg 95%
    21:00 +14°C° 0 mm 2 mps 760 mmHg 96%
    22:00 +14°C° 0 mm 2 mps 760 mmHg 96%
    23:00 +14°C° 0 mm 2 mps 760 mmHg 96%

    Tomorrow, 27 September, Thursday

    Time Temperature Precipitation Wind Pressure Humidity
    00:00 +13°C° 0 mm 2 mps 760 mmHg 96%
    01:00 +13°C° 0 mm 2 mps 760 mmHg 96%
    02:00 +13°C° 0 mm 2 mps 760 mmHg 96%
    03:00 +13°C° 0 mm 2 mps 760 mmHg 96%
    04:00 +12°C° 0 mm 2 mps 760 mmHg 96%
    05:00 +12°C° 0 mm 2 mps 760 mmHg 96%
    06:00 +12°C° 0 mm 2 mps 760 mmHg 96%
    07:00 +12°C° 0 mm 2 mps 760 mmHg 92%
    08:00 +13°C° 0 mm 2 mps 761 mmHg 88%
    09:00 +14°C° 0 mm 2 mps 761 mmHg 85%
    10:00 +16°C° 0 mm 2 mps 761 mmHg 79%
    11:00 +17°C° 0 mm 2 mps 761 mmHg 73%
    12:00 +19°C° 0 mm 2 mps 761 mmHg 67%
    13:00 +19°C° 0 mm 2 mps 761 mmHg 63%
    14:00 +20°C° 0 mm 2 mps 761 mmHg 60%
    15:00 +21°C° 0 mm 2 mps 760 mmHg 56%
    16:00 +19°C° 0 mm 2 mps 761 mmHg 63%
    17:00 +17°C° 0 mm 2 mps 761 mmHg 70%
    18:00 +15°C° 0 mm 1 mps 761 mmHg 77%
    19:00 +14°C° 0 mm 1 mps 761 mmHg 81%
    20:00 +13°C° 0 mm 1 mps 761 mmHg 84%
    21:00 +12°C° 0 mm 1 mps 761 mmHg 87%
    22:00 +12°C° 0 mm 1 mps 761 mmHg 88%
    23:00 +11°C° 0 mm 1 mps 761 mmHg 90%

    Day after tomorrow, 28 September, Friday

    Time Temperature Precipitation Wind Pressure Humidity
    00:00 +11°C° 0 mm 1 mps 761 mmHg 91%
    01:00 +11°C° 0 mm 1 mps 761 mmHg 91%
    02:00 +10°C° 0 mm 1 mps 761 mmHg 92%
    03:00 +10°C° 0 mm 1 mps 761 mmHg 93%
    04:00 +10°C° 0 mm 1 mps 761 mmHg 93%
    05:00 +9°C° 0 mm 1 mps 761 mmHg 94%
    06:00 +9°C° 0 mm 1 mps 761 mmHg 94%
    07:00 +10°C° 0 mm 2 mps 761 mmHg 90%
    08:00 +12°C° 0 mm 2 mps 760 mmHg 86%
    09:00 +13°C° 0 mm 2 mps 760 mmHg 81%
    10:00 +15°C° 0 mm 2 mps 760 mmHg 75%
    11:00 +17°C° 0 mm 3 mps 759 mmHg 68%
    12:00 +18°C° 0 mm 3 mps 759 mmHg 62%
    13:00 +19°C° 0 mm 3 mps 758 mmHg 60%
    14:00 +19°C° 0 mm 3 mps 758 mmHg 58%
    15:00 +20°C° 0 mm 4 mps 757 mmHg 56%
    16:00 +18°C° 0 mm 3 mps 757 mmHg 64%
    17:00 +17°C° 0 mm 3 mps 756 mmHg 73%
    18:00 +14°C° 0 mm 3 mps 756 mmHg 81%
    19:00 +14°C° 0 mm 3 mps 756 mmHg 85%
    20:00 +13°C° 0 mm 3 mps 756 mmHg 88%
    21:00 +13°C° 0 mm 3 mps 756 mmHg 92%
    22:00 +12°C° 0 mm 3 mps 755 mmHg 93%
    23:00 +12°C° 0 mm 3 mps 755 mmHg 94%

    29 September, Saturday

    Time Temperature Precipitation Wind Pressure Humidity
    00:00 +12°C° 0 mm 3 mps 754 mmHg 95%
    01:00 +12°C° 0 mm 3 mps 754 mmHg 96%
    02:00 +11°C° 0 mm 3 mps 753 mmHg 96%
    03:00 +11°C° 0 mm 3 mps 752 mmHg 96%
    04:00 +11°C° 0 mm 4 mps 752 mmHg 96%
    05:00 +11°C° 0 mm 4 mps 752 mmHg 96%
    06:00 +11°C° 0 mm 4 mps 752 mmHg 95%
    07:00 +11°C° 0.3 mm 4 mps 752 mmHg 93%
    08:00 +11°C° 0.3 mm 4 mps 753 mmHg 92%
    09:00 +12°C° 0.3 mm 4 mps 753 mmHg 90%
    10:00 +12°C° 0.4 mm 4 mps 753 mmHg 86%
    11:00 +12°C° 0.4 mm 4 mps 754 mmHg 82%
    12:00 +12°C° 0.4 mm 4 mps 754 mmHg 78%
    13:00 +12°C° 0 mm 4 mps 755 mmHg 73%
    14:00 +13°C° 0 mm 4 mps 755 mmHg 67%
    15:00 +13°C° 0 mm 4 mps 756 mmHg 62%
    16:00 +12°C° 0 mm 4 mps 756 mmHg 65%
    17:00 +11°C° 0 mm 3 mps 757 mmHg 68%
    18:00 +10°C° 0 mm 3 mps 757 mmHg 71%
    19:00 +9°C° 0 mm 3 mps 757 mmHg 71%
    20:00 +8°C° 0 mm 4 mps 757 mmHg 72%
    21:00 +7°C° 0 mm 4 mps 757 mmHg 72%
    22:00 +8°C° 0 mm 4 mps 757 mmHg 71%
    23:00 +8°C° 0 mm 5 mps 756 mmHg 69%

    30 September, Sunday

    Time Temperature Precipitation Wind Pressure Humidity
    00:00 +8°C° 0 mm 5 mps 756 mmHg 68%
    01:00 +8°C° 0 mm 5 mps 756 mmHg 67%
    02:00 +9°C° 0 mm 5 mps 756 mmHg 66%
    03:00 +9°C° 0 mm 5 mps 755 mmHg 65%
    04:00 +8°C° 0 mm 5 mps 755 mmHg 66%
    05:00 +8°C° 0 mm 5 mps 756 mmHg 68%
    06:00 +8°C° 0 mm 5 mps 756 mmHg 69%
    07:00 +8°C° 0 mm 6 mps 756 mmHg 67%
    08:00 +9°C° 0 mm 6 mps 756 mmHg 66%
    09:00 +9°C° 0 mm 7 mps 757 mmHg 64%
    10:00 +9°C° 0 mm 6 mps 757 mmHg 58%
    11:00 +10°C° 0 mm 6 mps 757 mmHg 53%
    12:00 +10°C° 0 mm 6 mps 758 mmHg 48%
    13:00 +10°C° 0 mm 6 mps 758 mmHg 46%
    14:00 +10°C° 0 mm 5 mps 758 mmHg 45%
    15:00 +10°C° 0 mm 5 mps 758 mmHg 43%
    16:00 +10°C° 0 mm 4 mps 758 mmHg 49%
    17:00 +8°C° 0 mm 3 mps 759 mmHg 55%
    18:00 +7°C° 0 mm 2 mps 759 mmHg 61%
    19:00 +8°C° 0 mm 1 mps 759 mmHg 63%
    20:00 +7°C° 0 mm 1 mps 759 mmHg 65%
    21:00 +7°C° 0 mm 1 mps 759 mmHg 67%
    22:00 +7°C° 0 mm 1 mps 759 mmHg 67%
    23:00 +7°C° 0 mm 1 mps 758 mmHg 66%

    1 October, Monday

    Time Temperature Precipitation Wind Pressure Humidity
    00:00 +7°C° 0 mm 1 mps 758 mmHg 66%
    01:00 +7°C° 0.6 mm 1 mps 758 mmHg 72%
    02:00 +7°C° 0.6 mm 1 mps 757 mmHg 79%
    03:00 +5°C° 0.6 mm 0 mps 757 mmHg 85%
    04:00 +5°C° 0.7 mm 0 mps 757 mmHg 87%
    05:00 +5°C° 0.7 mm 0 mps 757 mmHg 89%
    06:00 +5°C° 0.7 mm 0 mps 756 mmHg 91%
    07:00 +5°C° 0.2 mm 0 mps 756 mmHg 90%
    08:00 +6°C° 0.2 mm 1 mps 756 mmHg 88%
    09:00 +7°C° 0.2 mm 1 mps 755 mmHg 86%
    10:00 +8°C° 0.1 mm 1 mps 755 mmHg 81%
    11:00 +8°C° 0.1 mm 1 mps 755 mmHg 77%
    12:00 +9°C° 0.1 mm 1 mps 755 mmHg 73%
    13:00 +9°C° 0.2 mm 1 mps 754 mmHg 75%
    14:00 +9°C° 0.2 mm 1 mps 754 mmHg 77%
    15:00 +8°C° 0.2 mm 1 mps 754 mmHg 79%
    16:00 +8°C° 0.7 mm 1 mps 754 mmHg 83%
    17:00 +7°C° 0.7 mm 1 mps 753 mmHg 88%
    18:00 +7°C° 0.7 mm 1 mps 753 mmHg 93%
    19:00 +6°C° 0.7 mm 1 mps 753 mmHg 93%
    20:00 +6°C° 0.7 mm 1 mps 752 mmHg 94%
    21:00 +5°C° 0.7 mm 2 mps 752 mmHg 94%
    22:00 +5°C° 0.5 mm 2 mps 752 mmHg 94%
    23:00 +5°C° 0.5 mm 2 mps 751 mmHg 94%
    Show more